Time,TemperatureF,DewpointF,PressureIn,WindDirection,WindDirectionDegrees,WindSpeedMPH,WindSpeedGustMPH,Humidity,HourlyPrecipIn,Conditions,Clouds,dailyrainin,SoftwareType,DateUTC
2013-05-08 00:04:00,32.6,15.0,30.33,SW,231,0.0,0.0,49,0.00,,,0.00,weatherlink.com 1.10,2013-05-08 08:04:00,
2013-05-08 00:19:00,32.3,15.0,30.33,SW,231,0.0,0.0,50,0.00,,,0.00,weatherlink.com 1.10,2013-05-08 08:19:00,
2013-05-08 00:34:00,31.6,17.0,30.33,SW,231,0.0,0.0,56,0.00,,,0.00,weatherlink.com 1.10,2013-05-08 08:34:00,
2013-05-08 00:49:00,29.6,21.0,30.34,SW,231,0.0,0.0,69,0.00,,,0.00,weatherlink.com 1.10,2013-05-08 08:49:00,
2013-05-08 01:04:00,28.7,17.0,30.34,SW,230,0.0,0.0,62,0.00,,,0.00,weatherlink.com 1.10,2013-05-08 09:04:00,
2013-05-08 01:19:00,29.2,19.0,30.34,SW,231,0.0,1.0,67,0.00,,,0.00,weatherlink.com 1.10,2013-05-08 09:19:00,
2013-05-08 01:34:00,28.5,18.0,30.34,SW,231,0.0,0.0,64,0.00,,,0.00,weatherlink.com 1.10,2013-05-08 09:34:00,
2013-05-08 01:49:00,28.7,17.0,30.35,SW,231,0.0,1.0,62,0.00,,,0.00,weatherlink.com 1.10,2013-05-08 09:49:00,
2013-05-08 02:04:00,28.5,18.0,30.35,SW,231,0.0,0.0,64,0.00,,,0.00,weatherlink.com 1.10,2013-05-08 10:04:00,
2013-05-08 02:19:00,28.0,18.0,30.35,SW,231,0.0,0.0,66,0.00,,,0.00,weatherlink.com 1.10,2013-05-08 10:19:00,
2013-05-08 02:34:00,27.3,18.0,30.36,SW,231,0.0,0.0,68,0.00,,,0.00,weatherlink.com 1.10,2013-05-08 10:34:00,
2013-05-08 02:49:00,27.0,18.0,30.36,SW,231,0.0,0.0,69,0.00,,,0.00,weatherlink.com 1.10,2013-05-08 10:49:00,
2013-05-08 03:04:00,26.6,18.0,30.36,SW,231,0.0,0.0,69,0.00,,,0.00,weatherlink.com 1.10,2013-05-08 11:04:00,
2013-05-08 03:19:00,26.3,18.0,30.36,SW,231,0.0,-999.0,72,-99.99,,,0.00,weatherlink.com 1.10,2013-05-08 11:19:00,
2013-05-08 03:34:00,25.9,18.0,30.36,SW,231,0.0,0.0,73,0.00,,,0.00,weatherlink.com 1.10,2013-05-08 11:34:00,
2013-05-08 03:50:00,25.7,19.0,30.36,SW,226,0.0,0.0,75,0.00,,,0.00,weatherlink.com 1.10,2013-05-08 11:50:00,
2013-05-08 04:05:00,25.6,18.0,30.36,ESE,113,0.0,0.0,72,0.00,,,0.00,weatherlink.com 1.10,2013-05-08 12:05:00,
2013-05-08 04:20:00,25.0,17.0,30.36,ESE,113,0.0,0.0,72,0.00,,,0.00,weatherlink.com 1.10,2013-05-08 12:20:00,
2013-05-08 04:35:00,24.8,18.0,30.37,ESE,113,0.0,0.0,76,0.00,,,0.00,weatherlink.com 1.10,2013-05-08 12:35:00,
2013-05-08 04:50:00,25.0,18.0,30.37,East,101,0.0,1.0,75,0.00,,,0.00,weatherlink.com 1.10,2013-05-08 12:50:00,
2013-05-08 05:05:00,25.0,19.0,30.36,East,101,0.0,1.0,77,0.00,,,0.00,weatherlink.com 1.10,2013-05-08 13:05:00,
2013-05-08 05:20:00,24.5,19.0,30.36,East,101,0.0,0.0,78,0.00,,,0.00,weatherlink.com 1.10,2013-05-08 13:20:00,
2013-05-08 05:35:00,24.2,18.0,30.37,East,100,0.0,0.0,78,0.00,,,0.00,weatherlink.com 1.10,2013-05-08 13:35:00,
2013-05-08 05:50:00,24.0,19.0,30.37,East,100,0.0,0.0,80,0.00,,,0.00,weatherlink.com 1.10,2013-05-08 13:50:00,
2013-05-08 06:05:00,24.0,18.0,30.37,East,101,0.0,0.0,79,0.00,,,0.00,weatherlink.com 1.10,2013-05-08 14:05:00,
2013-05-08 06:20:00,24.4,18.0,30.37,East,100,0.0,1.0,77,0.00,,,0.00,weatherlink.com 1.10,2013-05-08 14:20:00,
2013-05-08 06:35:00,24.4,18.0,30.37,East,101,0.0,0.0,78,0.00,,,0.00,weatherlink.com 1.10,2013-05-08 14:35:00,
2013-05-08 06:50:00,24.6,18.0,30.37,East,101,0.0,0.0,76,0.00,,,0.00,weatherlink.com 1.10,2013-05-08 14:50:00,
2013-05-08 07:05:00,25.3,19.0,30.37,East,79,0.0,1.0,76,0.00,,,0.00,weatherlink.com 1.10,2013-05-08 15:05:00,
2013-05-08 07:21:00,26.9,18.0,30.37,ESE,120,0.0,1.0,70,0.00,,,0.00,weatherlink.com 1.10,2013-05-08 15:21:00,
2013-05-08 07:35:00,27.9,19.0,30.37,ESE,103,0.0,1.0,70,0.00,,,0.00,weatherlink.com 1.10,2013-05-08 15:35:00,
2013-05-08 07:50:00,27.9,20.0,30.37,ESE,103,0.0,1.0,71,0.00,,,0.00,weatherlink.com 1.10,2013-05-08 15:50:00,
2013-05-08 08:05:00,28.7,19.0,30.37,ESE,103,0.0,1.0,68,0.00,,,0.00,weatherlink.com 1.10,2013-05-08 16:05:00,
2013-05-08 08:20:00,31.0,20.0,30.38,East,94,0.0,0.0,63,0.00,,,0.00,weatherlink.com 1.10,2013-05-08 16:20:00,
2013-05-08 08:35:00,33.5,20.0,30.37,ESE,102,0.0,1.0,57,0.00,,,0.00,weatherlink.com 1.10,2013-05-08 16:35:00,
2013-05-08 08:50:00,34.6,19.0,30.37,SSW,204,0.0,1.0,54,0.00,,,0.00,weatherlink.com 1.10,2013-05-08 16:50:00,
2013-05-08 09:05:00,36.7,19.0,30.37,East,88,0.0,1.0,48,0.00,,,0.00,weatherlink.com 1.10,2013-05-08 17:05:00,
2013-05-08 09:20:00,38.3,19.0,30.37,ESE,122,1.0,1.0,45,0.00,,,0.00,weatherlink.com 1.10,2013-05-08 17:20:00,
2013-05-08 09:35:00,39.0,21.0,30.36,SSW,210,0.0,2.0,49,0.00,,,0.00,weatherlink.com 1.10,2013-05-08 17:35:00,
2013-05-08 09:50:00,39.1,19.0,30.36,SSE,160,0.0,2.0,45,0.00,,,0.00,weatherlink.com 1.10,2013-05-08 17:50:00,
2013-05-08 10:05:00,40.8,19.0,30.37,SW,226,0.0,5.0,42,0.00,,,0.00,weatherlink.com 1.10,2013-05-08 18:05:00,
2013-05-08 10:20:00,42.3,19.0,30.36,SE,141,0.0,3.0,39,0.00,,,0.00,weatherlink.com 1.10,2013-05-08 18:20:00,
2013-05-08 10:35:00,43.4,19.0,30.37,South,174,3.0,3.0,38,0.00,,,0.00,weatherlink.com 1.10,2013-05-08 18:35:00,
2013-05-08 10:50:00,43.4,18.0,30.37,SSE,147,0.0,5.0,36,0.00,,,0.00,weatherlink.com 1.10,2013-05-08 18:50:00,
2013-05-08 11:05:00,44.4,18.0,30.36,East,94,2.0,3.0,35,0.00,,,0.00,weatherlink.com 1.10,2013-05-08 19:05:00,
2013-05-08 11:20:00,44.1,19.0,30.36,ESE,117,0.0,7.0,36,0.00,,,0.00,weatherlink.com 1.10,2013-05-08 19:20:00,
2013-05-08 11:35:00,45.0,17.0,30.37,ESE,122,2.0,3.0,33,0.00,,,0.00,weatherlink.com 1.10,2013-05-08 19:35:00,
2013-05-08 12:06:00,47.7,16.0,30.36,West,273,1.0,4.0,28,0.00,,,0.00,weatherlink.com 1.10,2013-05-08 20:06:00,
2013-05-08 12:21:00,48.1,16.0,30.36,SE,131,3.0,4.0,28,0.00,,,0.00,weatherlink.com 1.10,2013-05-08 20:21:00,
2013-05-08 12:36:00,47.6,17.0,30.36,SSW,195,1.0,8.0,29,0.00,,,0.00,weatherlink.com 1.10,2013-05-08 20:36:00,
2013-05-08 12:51:00,48.3,16.0,30.36,SE,131,3.0,6.0,27,0.00,,,0.00,weatherlink.com 1.10,2013-05-08 20:51:00,
2013-05-08 13:06:00,48.9,17.0,30.36,North,8,1.0,5.0,28,0.00,,,0.00,weatherlink.com 1.10,2013-05-08 21:06:00,
2013-05-08 13:21:00,49.1,15.0,30.36,South,179,6.0,8.0,25,0.00,,,0.00,weatherlink.com 1.10,2013-05-08 21:21:00,
2013-05-08 13:36:00,48.6,16.0,30.36,SE,127,2.0,5.0,27,0.00,,,0.00,weatherlink.com 1.10,2013-05-08 21:36:00,
2013-05-08 13:51:00,48.7,15.0,30.36,South,169,2.0,6.0,26,0.00,,,0.00,weatherlink.com 1.10,2013-05-08 21:51:00,
2013-05-08 14:06:00,48.8,15.0,30.36,SSE,159,1.0,6.0,26,0.00,,,0.00,weatherlink.com 1.10,2013-05-08 22:06:00,
2013-05-08 14:21:00,49.0,14.0,30.37,South,171,4.0,8.0,25,0.00,,,0.00,weatherlink.com 1.10,2013-05-08 22:21:00,
2013-05-08 14:36:00,49.5,18.0,30.37,West,276,0.0,6.0,29,0.00,,,0.00,weatherlink.com 1.10,2013-05-08 22:36:00,
2013-05-08 14:51:00,49.4,18.0,30.37,ESE,107,2.0,6.0,29,0.00,,,0.00,weatherlink.com 1.10,2013-05-08 22:51:00,
2013-05-08 15:06:00,49.0,15.0,30.36,WSW,257,0.0,6.0,26,0.00,,,0.00,weatherlink.com 1.10,2013-05-08 23:06:00,
2013-05-08 15:21:00,49.5,18.0,30.37,WSW,256,1.0,4.0,29,0.00,,,0.00,weatherlink.com 1.10,2013-05-08 23:21:00,
2013-05-08 15:36:00,50.0,15.0,30.37,SSE,149,1.0,6.0,25,0.00,,,0.00,weatherlink.com 1.10,2013-05-08 23:36:00,
2013-05-08 15:51:00,49.5,17.0,30.36,NNE,13,2.0,6.0,27,0.00,,,0.00,weatherlink.com 1.10,2013-05-08 23:51:00,
2013-05-08 16:06:00,48.6,16.0,30.37,ESE,117,0.0,3.0,27,0.00,,,0.00,weatherlink.com 1.10,2013-05-09 00:06:00,
2013-05-08 16:21:00,49.2,17.0,30.36,WSW,249,0.0,5.0,28,0.00,,,0.00,weatherlink.com 1.10,2013-05-09 00:21:00,
2013-05-08 16:36:00,48.7,18.0,30.37,South,181,1.0,7.0,30,0.00,,,0.00,weatherlink.com 1.10,2013-05-09 00:36:00,
2013-05-08 16:51:00,48.3,16.0,30.36,NW,311,2.0,7.0,28,0.00,,,0.00,weatherlink.com 1.10,2013-05-09 00:51:00,
2013-05-08 17:06:00,48.0,18.0,30.36,NE,47,2.0,4.0,30,0.00,,,0.00,weatherlink.com 1.10,2013-05-09 01:06:00,
2013-05-08 17:21:00,48.6,17.0,30.36,SW,215,4.0,6.0,29,0.00,,,0.00,weatherlink.com 1.10,2013-05-09 01:21:00,
2013-05-08 17:36:00,48.6,18.0,30.36,SSW,208,1.0,2.0,30,0.00,,,0.00,weatherlink.com 1.10,2013-05-09 01:36:00,
2013-05-08 17:51:00,48.7,18.0,30.36,SSW,204,1.0,6.0,29,0.00,,,0.00,weatherlink.com 1.10,2013-05-09 01:51:00,
2013-05-08 18:07:00,48.3,17.0,30.36,WSW,239,0.0,4.0,29,0.00,,,0.00,weatherlink.com 1.10,2013-05-09 02:07:00,
2013-05-08 18:21:00,48.2,17.0,30.36,SSE,166,0.0,6.0,29,0.00,,,0.00,weatherlink.com 1.10,2013-05-09 02:21:00,
2013-05-08 18:36:00,48.3,17.0,30.36,SW,230,0.0,5.0,29,0.00,,,0.00,weatherlink.com 1.10,2013-05-09 02:36:00,
2013-05-08 18:51:00,47.3,19.0,30.36,SE,131,3.0,3.0,32,0.00,,,0.00,weatherlink.com 1.10,2013-05-09 02:51:00,
2013-05-08 19:06:00,47.2,17.0,30.36,SE,139,1.0,6.0,30,0.00,,,0.00,weatherlink.com 1.10,2013-05-09 03:06:00,
2013-05-08 19:21:00,46.5,16.0,30.36,East,94,0.0,4.0,30,0.00,,,0.00,weatherlink.com 1.10,2013-05-09 03:21:00,
2013-05-08 19:36:00,46.4,18.0,30.36,SSW,198,0.0,5.0,32,0.00,,,0.00,weatherlink.com 1.10,2013-05-09 03:36:00,
2013-05-08 19:51:00,46.0,19.0,30.37,West,266,0.0,6.0,34,0.00,,,0.00,weatherlink.com 1.10,2013-05-09 03:51:00,
2013-05-08 20:06:00,45.5,17.0,30.36,SE,131,0.0,3.0,32,0.00,,,0.00,weatherlink.com 1.10,2013-05-09 04:06:00,
2013-05-08 20:21:00,45.3,18.0,30.37,ESE,122,0.0,2.0,34,0.00,,,0.00,weatherlink.com 1.10,2013-05-09 04:21:00,
2013-05-08 20:36:00,44.9,17.0,30.38,SE,127,0.0,2.0,33,0.00,,,0.00,weatherlink.com 1.10,2013-05-09 04:36:00,
2013-05-08 20:51:00,44.1,17.0,30.38,East,79,0.0,1.0,34,0.00,,,0.00,weatherlink.com 1.10,2013-05-09 04:51:00,
2013-05-08 21:06:00,43.4,18.0,30.38,ESE,103,0.0,1.0,36,0.00,,,0.00,weatherlink.com 1.10,2013-05-09 05:06:00,
2013-05-08 21:21:00,42.8,17.0,30.38,SE,133,0.0,1.0,36,0.00,,,0.00,weatherlink.com 1.10,2013-05-09 05:21:00,
2013-05-08 21:36:00,42.1,17.0,30.39,SE,132,0.0,0.0,36,0.00,,,0.00,weatherlink.com 1.10,2013-05-09 05:36:00,
2013-05-08 21:51:00,41.7,17.0,30.39,SE,132,0.0,0.0,37,0.00,,,0.00,weatherlink.com 1.10,2013-05-09 05:51:00,
2013-05-08 22:06:00,41.2,17.0,30.39,SE,132,0.0,0.0,37,0.00,,,0.00,weatherlink.com 1.10,2013-05-09 06:06:00,
2013-05-08 22:21:00,40.8,17.0,30.39,SE,132,0.0,0.0,38,0.00,,,0.00,weatherlink.com 1.10,2013-05-09 06:21:00,
2013-05-08 22:36:00,40.3,17.0,30.40,SE,132,0.0,0.0,39,0.00,,,0.00,weatherlink.com 1.10,2013-05-09 06:36:00,
2013-05-08 22:51:00,39.7,17.0,30.40,SE,132,0.0,0.0,40,0.00,,,0.00,weatherlink.com 1.10,2013-05-09 06:51:00,
2013-05-08 23:06:00,39.1,17.0,30.41,NW,319,0.0,1.0,41,0.00,,,0.00,weatherlink.com 1.10,2013-05-09 07:06:00,
2013-05-08 23:21:00,38.3,17.0,30.41,NW,319,0.0,0.0,42,0.00,,,0.00,weatherlink.com 1.10,2013-05-09 07:21:00,
2013-05-08 23:36:00,37.6,19.0,30.42,NW,319,0.0,0.0,47,0.00,,,0.00,weatherlink.com 1.10,2013-05-09 07:36:00,
2013-05-08 23:51:00,36.4,19.0,30.42,NW,319,0.0,0.0,50,0.00,,,0.00,weatherlink.com 1.10,2013-05-09 07:51:00,